| time (UTC) | temp F | wind direction | speed MPH | gust MPH | rain 1hr in | rain 24hr in | rain mn in | humidity % | barometer mb |
| 20260506113049 | 59 | 190 | 2.0 | 7.0 | 0.00 | 0.00 | 0.00 | 87 | 1009.6 |
| 20260506111546 | 58 | 169 | 2.0 | 6.0 | 0.00 | 0.00 | 0.00 | 88 | 1009.4 |
| 20260506110051 | 57 | 227 | 1.0 | 5.0 | 0.00 | 0.00 | 0.00 | 88 | 1009.6 |
| 20260506104548 | 57 | 207 | 1.0 | 5.0 | 0.00 | 0.00 | 0.00 | 89 | 1009.4 |
| 20260506103052 | 56 | 178 | 3.0 | 7.0 | 0.00 | 0.00 | 0.00 | 89 | 1009.4 |
| 20260506101549 | 56 | 167 | 2.0 | 9.0 | 0.00 | 0.00 | 0.00 | 89 | 1009.4 |
| 20260506100049 | 56 | 0 | 1.0 | 5.0 | 0.00 | 0.00 | 0.00 | 89 | 1009.4 |
| 20260506094549 | 56 | 207 | 2.0 | 8.0 | 0.00 | 0.00 | 0.00 | 89 | 1009.3 |
| 20260506093052 | 56 | 143 | 0.0 | 6.0 | 0.00 | 0.00 | 0.00 | 88 | 1009.2 |
| 20260506091547 | 56 | 0 | 0.0 | 7.0 | 0.00 | 0.00 | 0.00 | 88 | 1009.3 |
| 20260506090046 | 56 | 202 | 2.0 | 12.0 | 0.00 | 0.00 | 0.00 | 88 | 1009.3 |
| 20260506084546 | 56 | 0 | 1.0 | 5.0 | 0.00 | 0.00 | 0.00 | 87 | 1009.5 |
| 20260506083053 | 56 | 290 | 1.0 | 4.0 | 0.00 | 0.00 | 0.00 | 87 | 1009.5 |
| 20260506081551 | 57 | 204 | 2.0 | 8.0 | 0.00 | 0.00 | 0.00 | 87 | 1009.5 |
| 20260506073043 | 57 | 203 | 1.0 | 7.0 | 0.00 | 0.00 | 0.00 | 87 | 1009.6 |
| 20260506071553 | 57 | 0 | 1.0 | 6.0 | 0.00 | 0.00 | 0.00 | 86 | 1009.9 |
| 20260506070109 | 57 | 144 | 2.0 | 9.0 | 0.00 | 0.00 | 0.00 | 86 | 1009.8 |
| 20260506061546 | 57 | 142 | 1.0 | 8.0 | 0.00 | 0.00 | 0.00 | 85 | 1009.9 |
| 20260506044555 | 58 | 113 | 0.0 | 5.0 | 0.00 | 0.00 | 0.00 | 82 | 1010.3 |
| 20260506043049 | 59 | 191 | 2.0 | 8.0 | 0.00 | 0.00 | 0.00 | 82 | 1010.3 |
| 20260506041551 | 59 | 182 | 2.0 | 6.0 | 0.00 | 0.00 | 0.00 | 80 | 1010.2 |
| 20260506040051 | 60 | 157 | 2.0 | 6.0 | 0.00 | 0.00 | 0.00 | 79 | 1010.2 |
| 20260506034552 | 61 | 166 | 1.0 | 4.0 | 0.00 | 0.00 | 0.00 | 77 | 1010.2 |
| 20260506033048 | 61 | 160 | 1.0 | 4.0 | 0.00 | 0.00 | 0.00 | 76 | 1010.2 |
| 20260506031554 | 61 | 134 | 2.0 | 7.0 | 0.00 | 0.00 | 0.00 | 76 | 1009.9 |
| 20260506030105 | 61 | 185 | 2.0 | 7.0 | 0.00 | 0.00 | 0.00 | 75 | 1009.9 |
| 20260506024544 | 62 | 202 | 2.0 | 8.0 | 0.00 | 0.00 | 0.00 | 75 | 1010.1 |
| 20260506023049 | 62 | 192 | 2.0 | 8.0 | 0.00 | 0.00 | 0.00 | 74 | 1010.1 |
| 20260506021547 | 63 | 173 | 1.0 | 7.0 | 0.00 | 0.00 | 0.00 | 73 | 1010.1 |
| 20260506020048 | 64 | 249 | 3.0 | 10.0 | 0.00 | 0.00 | 0.00 | 71 | 1010.0 |
| 20260506014543 | 64 | 224 | 1.0 | 10.0 | 0.00 | 0.00 | 0.00 | 72 | 1009.9 |
| 20260506013047 | 64 | 200 | 3.0 | 12.0 | 0.00 | 0.00 | 0.00 | 71 | 1009.8 |
| 20260506011553 | 64 | 161 | 3.0 | 9.0 | 0.00 | 0.00 | 0.00 | 71 | 1009.7 |
| 20260506010043 | 64 | 153 | 1.0 | 9.0 | 0.00 | 0.00 | 0.00 | 72 | 1009.5 |
| 20260506004618 | 64 | 163 | 2.0 | 7.0 | 0.00 | 0.00 | 0.00 | 73 | 1009.2 |
| 20260506003049 | 64 | 225 | 2.0 | 8.0 | 0.00 | 0.00 | 0.00 | 73 | 1009.1 |
| 20260506001538 | 64 | 124 | 4.0 | 13.0 | 0.00 | 0.00 | 0.00 | 72 | 1008.9 |
| 20260506000048 | 64 | 187 | 4.0 | 9.0 | 0.00 | 0.00 | 0.00 | 72 | 1008.9 |
| 20260505234607 | 64 | 201 | 3.0 | 15.0 | 0.00 | 0.00 | 0.00 | 72 | 1008.7 |
| 20260505233041 | 65 | 175 | 4.0 | 8.0 | 0.00 | 0.00 | 0.00 | 71 | 1008.5 |
| 20260505231549 | 65 | 207 | 2.0 | 8.0 | 0.00 | 0.00 | 0.00 | 71 | 1008.2 |
| 20260505230051 | 65 | 240 | 3.0 | 14.0 | 0.00 | 0.00 | 0.00 | 71 | 1008.0 |
| 20260505224544 | 66 | 159 | 4.0 | 13.0 | 0.00 | 0.00 | 0.00 | 70 | 1007.7 |
| 20260505223058 | 67 | 196 | 3.0 | 10.0 | 0.00 | 0.00 | 0.00 | 68 | 1007.6 |
| 20260505221557 | 67 | 146 | 3.0 | 8.0 | 0.00 | 0.00 | 0.00 | 68 | 1007.6 |
| 20260505220119 | 68 | 184 | 4.0 | 10.0 | 0.00 | 0.00 | 0.00 | 67 | 1007.5 |
| 20260505214604 | 68 | 190 | 4.0 | 11.0 | 0.00 | 0.00 | 0.00 | 67 | 1007.5 |
| 20260505213051 | 67 | 107 | 3.0 | 11.0 | 0.00 | 0.00 | 0.00 | 67 | 1007.3 |
| 20260505211559 | 67 | 190 | 6.0 | 16.0 | 0.00 | 0.00 | 0.00 | 67 | 1007.2 |
| 20260505210051 | 67 | 192 | 6.0 | 16.0 | 0.00 | 0.00 | 0.00 | 67 | 1007.2 |
| 20260505204545 | 68 | 188 | 6.0 | 15.0 | 0.00 | 0.00 | 0.00 | 66 | 1007.4 |
| 20260505203045 | 69 | 188 | 6.0 | 18.0 | 0.00 | 0.00 | 0.00 | 64 | 1007.5 |
| 20260505201602 | 71 | 199 | 6.0 | 14.0 | 0.00 | 0.00 | 0.00 | 62 | 1007.5 |
| 20260505200104 | 72 | 232 | 5.0 | 14.0 | 0.00 | 0.00 | 0.00 | 61 | 1007.6 |
| 20260505194555 | 72 | 158 | 5.0 | 11.0 | 0.00 | 0.00 | 0.00 | 62 | 1007.9 |
| 20260505193046 | 71 | 230 | 5.0 | 11.0 | 0.00 | 0.00 | 0.00 | 64 | 1008.3 |
| 20260505191553 | 71 | 205 | 4.0 | 11.0 | 0.00 | 0.00 | 0.00 | 63 | 1008.4 |
| 20260505190051 | 71 | 175 | 4.0 | 12.0 | 0.00 | 0.00 | 0.00 | 62 | 1008.8 |
| 20260505184550 | 71 | 200 | 6.0 | 13.0 | 0.00 | 0.00 | 0.00 | 63 | 1008.9 |
| 20260505183052 | 71 | 130 | 4.0 | 9.0 | 0.00 | 0.00 | 0.00 | 66 | 1009.0 |
| 20260505181549 | 70 | 141 | 5.0 | 10.0 | 0.00 | 0.00 | 0.00 | 65 | 1009.0 |
| 20260505180050 | 71 | 171 | 4.0 | 11.0 | 0.00 | 0.00 | 0.00 | 66 | 1009.1 |
| 20260505174549 | 73 | 169 | 3.0 | 10.0 | 0.00 | 0.00 | 0.00 | 65 | 1009.2 |
| 20260505173047 | 73 | 197 | 3.0 | 8.0 | 0.00 | 0.00 | 0.00 | 62 | 1009.2 |
| 20260505171543 | 73 | 169 | 5.0 | 12.0 | 0.00 | 0.00 | 0.00 | 61 | 1009.3 |
| 20260505170043 | 72 | 203 | 4.0 | 12.0 | 0.00 | 0.00 | 0.00 | 60 | 1009.5 |
| 20260505164542 | 73 | 133 | 4.0 | 10.0 | 0.00 | 0.00 | 0.00 | 61 | 1009.7 |
| 20260505163044 | 72 | 178 | 3.0 | 10.0 | 0.00 | 0.00 | 0.00 | 62 | 1009.9 |
| 20260505161544 | 71 | 158 | 3.0 | 8.0 | 0.00 | 0.00 | 0.00 | 64 | 1010.0 |
| 20260505153049 | 70 | 211 | 3.0 | 7.0 | 0.00 | 0.00 | 0.00 | 64 | 1010.2 |
| 20260505151549 | 70 | 162 | 3.0 | 8.0 | 0.00 | 0.00 | 0.00 | 65 | 1010.3 |
| 20260505124553 | 61 | 169 | 2.0 | 5.0 | 0.00 | 0.00 | 0.00 | 79 | 1010.5 |
| 20260505123043 | 60 | 198 | 1.0 | 3.0 | 0.00 | 0.00 | 0.00 | 82 | 1010.5 |
| 20260505121542 | 58 | 173 | 1.0 | 3.0 | 0.00 | 0.00 | 0.00 | 84 | 1010.6 |
| 20260505120052 | 57 | 0 | 0.0 | 3.0 | 0.00 | 0.00 | 0.00 | 87 | 1010.5 |
| 20260505114545 | 55 | 167 | 0.0 | 3.0 | 0.00 | 0.00 | 0.00 | 86 | 1010.5 |